EZY43ZE LGZA-EGGD

Flight info

Callsign EZY43ZE
Flight time N/A
Altitude 36000
Route KFN UM601 RUTOM DCT BUMOK DCT AMSOR DCT NUKNI DCT DOBOG DCT IBNAN DCT ABESI DCT UTAVO DCT HOC DCT LUL DCT RLP DCT ROTSI DCT KOTUN DCT NINAL DCT KESAX DCT KUNAV T421 ICTAM L179 SAWPE
Aircraft A320/M-SDE2E3FGHIJ1RWXYZ/LB1

Departure

Time 2026-04-27 11:58
Airport Zakynthos International Airport Dionysios Solomos (LGZA)

Arrival

Time N/A
Airport Bristol Airport (EGGD)
Time Latitude Longitude Altitude Speed Heading
2026-04-27 11:27 37.75409 20.88525 21 ft 0 kts 73°
2026-04-27 11:51 37.75406 20.88511 21 ft 4 kts 73°
2026-04-27 11:52 37.75399 20.88479 23 ft 4 kts 81°
2026-04-27 11:52 37.75399 20.88446 22 ft 4 kts 114°
2026-04-27 11:52 37.75413 20.88425 24 ft 1 kts 164°
2026-04-27 11:52 37.75418 20.88424 24 ft 0 kts 164°
2026-04-27 11:54 37.75414 20.88425 24 ft 4 kts 164°
2026-04-27 11:54 37.75353 20.88448 20 ft 14 kts 163°
2026-04-27 11:55 37.75252 20.88487 20 ft 15 kts 163°
2026-04-27 11:55 37.75159 20.88521 21 ft 13 kts 164°
2026-04-27 11:55 37.75059 20.88479 19 ft 21 kts 214°
2026-04-27 11:55 37.74912 20.88493 18 ft 23 kts 162°
2026-04-27 11:56 37.74755 20.88553 21 ft 24 kts 163°
2026-04-27 11:56 37.74587 20.88615 22 ft 26 kts 163°
2026-04-27 11:56 37.74406 20.88682 22 ft 28 kts 163°
2026-04-27 11:56 37.74239 20.88736 20 ft 15 kts 178°
2026-04-27 11:57 37.74163 20.88770 20 ft 12 kts 72°
2026-04-27 11:57 37.74230 20.88748 23 ft 11 kts 341°
2026-04-27 11:57 37.74246 20.88742 20 ft 3 kts 344°
2026-04-27 11:57 37.74462 20.88661 23 ft 72 kts 343°
2026-04-27 11:58 37.75172 20.88396 19 ft 138 kts 343°
2026-04-27 11:58 37.76200 20.88004 328 ft 164 kts 343°
2026-04-27 11:58 37.77312 20.87601 1022 ft 168 kts 343°
2026-04-27 11:58 37.78470 20.87196 1504 ft 180 kts 343°
2026-04-27 11:59 37.79752 20.86731 1787 ft 203 kts 343°
2026-04-27 11:59 37.81172 20.86208 2248 ft 218 kts 344°
2026-04-27 11:59 37.82654 20.85663 3037 ft 226 kts 343°
2026-04-27 11:59 37.84180 20.85100 3733 ft 231 kts 344°
2026-04-27 12:00 37.85731 20.84526 4439 ft 234 kts 345°
2026-04-27 12:00 37.87305 20.83944 5141 ft 237 kts 345°
2026-04-27 12:00 37.88894 20.83355 5863 ft 239 kts 344°
2026-04-27 12:00 37.90495 20.82760 6596 ft 241 kts 344°
2026-04-27 12:01 37.92105 20.82163 7304 ft 242 kts 344°
2026-04-27 12:01 37.93727 20.81558 8000 ft 244 kts 342°
2026-04-27 12:01 37.95217 20.80445 8359 ft 262 kts 310°
2026-04-27 12:01 37.96197 20.78396 8660 ft 282 kts 297°
2026-04-27 12:02 37.97200 20.76209 9300 ft 290 kts 301°
2026-04-27 12:02 37.98266 20.74028 10096 ft 292 kts 302°
2026-04-27 12:02 37.99411 20.71807 10429 ft 312 kts 304°
2026-04-27 12:02 38.00679 20.69458 10693 ft 331 kts 304°
2026-04-27 12:03 38.02021 20.67046 11295 ft 337 kts 305°
2026-04-27 12:03 38.03395 20.64621 11989 ft 340 kts 305°
2026-04-27 12:03 38.04786 20.62180 12706 ft 343 kts 305°
2026-04-27 12:03 38.06161 20.59748 13378 ft 346 kts 304°
2026-04-27 12:04 38.07557 20.57247 14034 ft 349 kts 304°
2026-04-27 12:04 38.08957 20.54720 14642 ft 351 kts 304°
2026-04-27 12:04 38.10364 20.52172 15251 ft 354 kts 303°
2026-04-27 12:04 38.11567 20.49443 15867 ft 356 kts 292°
2026-04-27 12:05 38.12420 20.46488 16468 ft 358 kts 289°
2026-04-27 12:05 38.13242 20.43491 17071 ft 360 kts 289°
2026-04-27 12:05 38.14069 20.40478 17659 ft 363 kts 289°
2026-04-27 12:05 38.14905 20.37440 18248 ft 365 kts 289°
2026-04-27 12:06 38.15749 20.34384 18762 ft 368 kts 289°
2026-04-27 12:06 38.16599 20.31303 19251 ft 371 kts 289°
2026-04-27 12:06 38.17454 20.28200 19733 ft 373 kts 289°
2026-04-27 12:06 38.18314 20.25075 20222 ft 376 kts 289°
2026-04-27 12:07 38.19179 20.21929 20691 ft 379 kts 289°
2026-04-27 12:07 38.20038 20.18800 21151 ft 381 kts 289°
2026-04-27 12:07 38.20912 20.15605 21603 ft 384 kts 289°
2026-04-27 12:07 38.21790 20.12390 22069 ft 386 kts 289°
2026-04-27 12:08 38.22673 20.09149 22518 ft 389 kts 289°
2026-04-27 12:08 38.23561 20.05887 22961 ft 391 kts 289°
2026-04-27 12:08 38.24455 20.02604 23406 ft 394 kts 289°
2026-04-27 12:08 38.25355 19.99303 23809 ft 396 kts 289°
2026-04-27 12:09 38.26261 19.95978 24172 ft 399 kts 289°
2026-04-27 12:09 38.27171 19.92640 24538 ft 400 kts 289°
2026-04-27 12:09 38.28084 19.89285 24895 ft 402 kts 289°
2026-04-27 12:09 38.29001 19.85909 25245 ft 404 kts 289°
2026-04-27 12:10 38.29919 19.82514 25591 ft 406 kts 289°
2026-04-27 12:10 38.30836 19.79103 25928 ft 408 kts 289°
2026-04-27 12:10 38.31757 19.75671 26269 ft 410 kts 289°
2026-04-27 12:10 38.32685 19.72229 26605 ft 412 kts 289°
2026-04-27 12:11 38.33620 19.68768 26942 ft 414 kts 289°
2026-04-27 12:11 38.34558 19.65290 27272 ft 416 kts 289°
2026-04-27 12:11 38.35485 19.61842 27593 ft 418 kts 289°
2026-04-27 12:11 38.36425 19.58330 27914 ft 420 kts 289°
2026-04-27 12:12 38.37366 19.54800 28240 ft 422 kts 289°
2026-04-27 12:12 38.38309 19.51254 28551 ft 424 kts 289°
2026-04-27 12:12 38.39257 19.47687 28865 ft 426 kts 289°
2026-04-27 12:12 38.40209 19.44102 29170 ft 428 kts 289°
2026-04-27 12:13 38.41163 19.40505 29467 ft 430 kts 288°
2026-04-27 12:13 38.42123 19.36889 29751 ft 432 kts 288°
2026-04-27 12:13 38.43087 19.33259 30024 ft 433 kts 288°
2026-04-27 12:13 38.44055 19.29607 30281 ft 435 kts 288°
2026-04-27 12:14 38.45023 19.25944 30516 ft 437 kts 288°
2026-04-27 12:14 38.45995 19.22268 30742 ft 438 kts 288°
2026-04-27 12:14 38.46968 19.18585 31037 ft 438 kts 288°
2026-04-27 12:14 38.47923 19.14960 31383 ft 436 kts 288°
2026-04-27 12:15 38.48885 19.11293 31718 ft 435 kts 288°
2026-04-27 12:15 38.49841 19.07641 32046 ft 434 kts 288°
2026-04-27 12:15 38.50802 19.03997 32381 ft 433 kts 290°
2026-04-27 12:15 38.52049 19.00508 32707 ft 432 kts 299°
2026-04-27 12:16 38.53716 18.97327 33031 ft 432 kts 308°
2026-04-27 12:16 38.55693 18.94439 33343 ft 431 kts 311°
2026-04-27 12:16 38.57685 18.91584 33663 ft 430 kts 310°
2026-04-27 12:16 38.59673 18.88728 33982 ft 429 kts 310°
2026-04-27 12:17 38.61653 18.85876 34272 ft 428 kts 310°
2026-04-27 12:17 38.63627 18.83026 34551 ft 427 kts 310°
2026-04-27 12:17 38.65592 18.80182 34822 ft 426 kts 310°
2026-04-27 12:17 38.67552 18.77336 35058 ft 426 kts 310°
2026-04-27 12:18 38.69504 18.74495 35289 ft 425 kts 310°
2026-04-27 12:18 38.71456 18.71652 35529 ft 425 kts 310°
2026-04-27 12:18 38.73380 18.68856 35750 ft 424 kts 310°
2026-04-27 12:18 38.75332 18.66026 35971 ft 423 kts 310°
2026-04-27 12:19 38.77278 18.63197 36095 ft 423 kts 310°
2026-04-27 12:19 38.81143 18.57558 36128 ft 420 kts 310°
2026-04-27 12:20 38.84995 18.51934 36126 ft 420 kts 310°
2026-04-27 12:20 38.88851 18.46306 36124 ft 420 kts 310°
2026-04-27 12:21 38.92698 18.40675 36126 ft 420 kts 310°
2026-04-27 12:21 38.96513 18.35068 36128 ft 419 kts 309°
2026-04-27 12:22 39.00351 18.29418 36127 ft 420 kts 309°
2026-04-27 12:22 39.04195 18.23766 36128 ft 420 kts 309°
2026-04-27 12:23 39.08033 18.18106 36129 ft 420 kts 309°
2026-04-27 12:23 39.11866 18.12433 36127 ft 420 kts 309°
2026-04-27 12:24 39.15695 18.06767 36126 ft 419 kts 309°
2026-04-27 12:24 39.19520 18.01089 36122 ft 419 kts 309°
2026-04-27 12:25 39.23339 17.95408 36119 ft 419 kts 309°
2026-04-27 12:25 39.27134 17.89760 36126 ft 420 kts 309°
2026-04-27 12:26 39.30960 17.84068 36111 ft 420 kts 309°
2026-04-27 12:26 39.34780 17.78364 36125 ft 420 kts 309°
2026-04-27 12:27 39.38591 17.72646 36128 ft 420 kts 309°
2026-04-27 12:27 39.42406 17.66921 36130 ft 420 kts 309°
2026-04-27 12:28 39.46220 17.61198 36132 ft 420 kts 309°
2026-04-27 12:28 39.50030 17.55455 36130 ft 420 kts 309°
2026-04-27 12:29 39.53814 17.49750 36134 ft 420 kts 309°
2026-04-27 12:29 39.57621 17.44001 36132 ft 420 kts 309°
2026-04-27 12:30 39.61422 17.38246 36134 ft 420 kts 309°
2026-04-27 12:30 39.65221 17.32484 36132 ft 420 kts 309°
2026-04-27 12:31 39.69020 17.26726 36130 ft 420 kts 309°
2026-04-27 12:31 39.72805 17.20954 36136 ft 420 kts 309°
2026-04-27 12:32 39.76589 17.15179 36130 ft 420 kts 309°
2026-04-27 12:32 39.80372 17.09405 36131 ft 419 kts 309°
2026-04-27 12:33 39.84126 17.03670 36132 ft 419 kts 309°
2026-04-27 12:33 39.87899 16.97886 36130 ft 419 kts 309°
2026-04-27 12:34 39.91661 16.92100 36116 ft 419 kts 309°
2026-04-27 12:34 39.95417 16.86313 36111 ft 418 kts 309°
2026-04-27 12:35 39.99173 16.80520 36130 ft 418 kts 309°
2026-04-27 12:35 40.02930 16.74725 36133 ft 418 kts 309°
2026-04-27 12:36 40.06677 16.68925 36143 ft 418 kts 309°
2026-04-27 12:36 40.09788 16.64103 36160 ft 418 kts 309°
2026-04-27 12:37 40.13534 16.58292 36165 ft 418 kts 309°
2026-04-27 12:37 40.17267 16.52483 36189 ft 417 kts 309°
2026-04-27 12:38 40.21002 16.46665 36197 ft 417 kts 309°
2026-04-27 12:38 40.24728 16.40849 36190 ft 417 kts 309°
2026-04-27 12:39 40.28451 16.35015 36192 ft 417 kts 309°
2026-04-27 12:39 40.32169 16.29183 36170 ft 417 kts 309°
2026-04-27 12:40 40.35883 16.23348 36156 ft 417 kts 309°
2026-04-27 12:40 40.39569 16.17543 36139 ft 417 kts 309°
2026-04-27 12:41 40.43279 16.11704 36140 ft 417 kts 309°
2026-04-27 12:41 40.46988 16.05861 36142 ft 416 kts 308°
2026-04-27 12:42 40.50684 16.00004 36139 ft 416 kts 308°
2026-04-27 12:42 40.54376 15.94142 36146 ft 416 kts 308°
2026-04-27 12:43 40.58066 15.88284 36139 ft 416 kts 308°
2026-04-27 12:43 40.61753 15.82424 36148 ft 415 kts 308°
2026-04-27 12:44 40.65432 15.76558 36145 ft 415 kts 308°
2026-04-27 12:44 40.69106 15.70688 36143 ft 415 kts 308°
2026-04-27 12:45 40.72723 15.64820 36140 ft 415 kts 307°
2026-04-27 12:45 40.76161 15.58722 36141 ft 414 kts 304°
2026-04-27 12:46 40.79517 15.52555 36150 ft 414 kts 305°
2026-04-27 12:46 40.82905 15.46408 36152 ft 414 kts 305°
2026-04-27 12:47 40.86310 15.40284 36148 ft 413 kts 305°
2026-04-27 12:47 40.89717 15.34167 36146 ft 413 kts 305°
2026-04-27 12:48 40.93116 15.28044 36146 ft 413 kts 305°
2026-04-27 12:48 40.96508 15.21913 36144 ft 413 kts 305°
2026-04-27 12:49 40.99868 15.15819 36145 ft 413 kts 305°
2026-04-27 12:49 41.03248 15.09681 36139 ft 412 kts 305°
2026-04-27 12:50 41.06628 15.03542 36149 ft 412 kts 305°
2026-04-27 12:50 41.09998 14.97403 36139 ft 412 kts 305°
2026-04-27 12:51 41.13361 14.91250 36148 ft 412 kts 305°
2026-04-27 12:51 41.17001 14.85402 36136 ft 413 kts 316°
2026-04-27 12:52 41.21297 14.80348 36136 ft 413 kts 316°
2026-04-27 12:52 41.25583 14.75277 36136 ft 413 kts 316°
2026-04-27 12:53 41.31971 14.67692 36128 ft 412 kts 316°
2026-04-27 12:53 41.36239 14.62618 36133 ft 411 kts 316°
2026-04-27 12:54 41.40509 14.57540 36132 ft 411 kts 316°
2026-04-27 12:54 41.44771 14.52458 36132 ft 411 kts 316°
2026-04-27 12:55 41.49027 14.47372 36129 ft 411 kts 316°
2026-04-27 12:55 41.53283 14.42281 36130 ft 411 kts 316°
2026-04-27 12:56 41.57536 14.37182 36138 ft 411 kts 316°
2026-04-27 12:56 41.61788 14.32081 36141 ft 411 kts 316°
2026-04-27 12:57 41.66031 14.26964 36146 ft 411 kts 316°
2026-04-27 12:57 41.70268 14.21845 36147 ft 410 kts 316°
2026-04-27 12:58 41.74498 14.16732 36156 ft 410 kts 316°
2026-04-27 12:58 41.78704 14.11658 36153 ft 409 kts 316°
2026-04-27 12:59 41.82923 14.06544 36149 ft 409 kts 316°
2026-04-27 12:59 41.87135 14.01415 36146 ft 409 kts 316°
2026-04-27 13:00 41.91343 13.96280 36131 ft 409 kts 316°
2026-04-27 13:00 41.95549 13.91137 36134 ft 409 kts 316°
2026-04-27 13:01 41.99756 13.85999 36132 ft 409 kts 316°
2026-04-27 13:01 42.03973 13.80861 36129 ft 409 kts 316°
2026-04-27 13:02 42.08151 13.75740 36124 ft 409 kts 316°
2026-04-27 13:02 42.12353 13.70574 36119 ft 409 kts 316°
2026-04-27 13:03 42.16555 13.65404 36105 ft 409 kts 316°
2026-04-27 13:03 42.20752 13.60221 36110 ft 410 kts 316°
2026-04-27 13:04 42.24948 13.55027 36113 ft 409 kts 316°
2026-04-27 13:04 42.29149 13.49828 36115 ft 410 kts 316°
2026-04-27 13:05 42.33354 13.44617 36109 ft 410 kts 316°
2026-04-27 13:05 42.37559 13.39391 36112 ft 411 kts 316°
2026-04-27 13:06 42.41740 13.34181 36114 ft 412 kts 316°
2026-04-27 13:06 42.45952 13.28922 36117 ft 412 kts 316°
2026-04-27 13:07 42.50168 13.23649 36119 ft 413 kts 316°
2026-04-27 13:07 42.54390 13.18365 36118 ft 413 kts 316°
2026-04-27 13:08 42.58610 13.13058 36120 ft 414 kts 316°
2026-04-27 13:08 42.62832 13.07747 36118 ft 414 kts 316°
2026-04-27 13:09 42.67068 13.02422 36120 ft 415 kts 317°
2026-04-27 13:09 42.71304 12.97092 36117 ft 415 kts 317°
2026-04-27 13:10 42.75542 12.91740 36117 ft 416 kts 317°
2026-04-27 13:10 42.79746 12.86398 36115 ft 416 kts 317°
2026-04-27 13:11 42.83983 12.81012 36110 ft 417 kts 317°
2026-04-27 13:11 42.88228 12.75631 36108 ft 417 kts 317°
2026-04-27 13:12 42.92470 12.70229 36103 ft 417 kts 317°
2026-04-27 13:12 42.96700 12.64813 36104 ft 417 kts 317°
2026-04-27 13:13 43.00937 12.59384 36102 ft 418 kts 317°
2026-04-27 13:13 43.05174 12.53959 36101 ft 418 kts 317°
2026-04-27 13:14 43.09412 12.48519 36104 ft 418 kts 317°
2026-04-27 13:14 43.13648 12.43061 36106 ft 418 kts 317°
2026-04-27 13:15 43.17881 12.37593 36107 ft 418 kts 317°
2026-04-27 13:15 43.22082 12.32154 36109 ft 418 kts 317°
2026-04-27 13:16 43.26314 12.26680 36105 ft 418 kts 317°
2026-04-27 13:16 43.30545 12.21204 36102 ft 418 kts 317°
2026-04-27 13:17 43.34767 12.15710 36107 ft 418 kts 317°
2026-04-27 13:17 43.38993 12.10204 36110 ft 419 kts 316°
2026-04-27 13:18 43.43217 12.04689 36117 ft 419 kts 316°
2026-04-27 13:18 43.47438 11.99163 36124 ft 419 kts 316°
2026-04-27 13:19 43.51659 11.93629 36127 ft 418 kts 316°
2026-04-27 13:19 43.55875 11.88100 36126 ft 418 kts 316°
2026-04-27 13:20 43.60056 11.82603 36127 ft 418 kts 316°
2026-04-27 13:20 43.64263 11.77052 36129 ft 418 kts 316°
2026-04-27 13:21 43.68464 11.71494 36134 ft 418 kts 316°
2026-04-27 13:21 43.72661 11.65932 36132 ft 418 kts 316°
2026-04-27 13:22 43.76857 11.60369 36127 ft 418 kts 316°
2026-04-27 13:22 43.81049 11.54798 36125 ft 418 kts 316°
2026-04-27 13:23 43.85191 11.49225 36124 ft 418 kts 316°
2026-04-27 13:23 43.89342 11.43589 36118 ft 418 kts 316°
2026-04-27 13:24 43.93493 11.37949 36122 ft 418 kts 316°
2026-04-27 13:24 43.97648 11.32308 36126 ft 418 kts 316°
2026-04-27 13:25 44.01796 11.26660 36137 ft 418 kts 316°
2026-04-27 13:25 44.05939 11.21008 36145 ft 417 kts 316°
2026-04-27 13:26 44.10081 11.15349 36158 ft 417 kts 316°
2026-04-27 13:26 44.14235 11.09707 36168 ft 417 kts 319°
2026-04-27 13:27 44.18874 11.04868 36175 ft 417 kts 324°
2026-04-27 13:27 44.23575 11.00128 36176 ft 417 kts 324°
2026-04-27 13:28 44.28270 10.95382 36174 ft 417 kts 324°
2026-04-27 13:28 44.32958 10.90615 36172 ft 417 kts 324°
2026-04-27 13:29 44.37605 10.85867 36177 ft 417 kts 324°
2026-04-27 13:29 44.42283 10.81089 36173 ft 417 kts 324°
2026-04-27 13:30 44.46965 10.76304 36170 ft 416 kts 324°
2026-04-27 13:30 44.51642 10.71515 36163 ft 416 kts 323°
2026-04-27 13:31 44.56309 10.66712 36163 ft 416 kts 323°
2026-04-27 13:31 44.60983 10.61910 36149 ft 416 kts 324°
2026-04-27 13:32 44.65650 10.57102 36134 ft 416 kts 323°
2026-04-27 13:32 44.70310 10.52285 36122 ft 416 kts 323°
2026-04-27 13:33 44.74965 10.47464 36114 ft 416 kts 323°
2026-04-27 13:33 44.79622 10.42630 36109 ft 416 kts 323°
2026-04-27 13:34 44.84272 10.37791 36109 ft 416 kts 323°
2026-04-27 13:34 44.88926 10.32951 36107 ft 416 kts 323°
2026-04-27 13:35 44.93571 10.28099 36112 ft 415 kts 323°
2026-04-27 13:35 44.98181 10.23266 36119 ft 415 kts 323°
2026-04-27 13:36 45.02819 10.18398 36118 ft 415 kts 323°
2026-04-27 13:36 45.07457 10.13529 36118 ft 415 kts 323°
2026-04-27 13:37 45.12094 10.08656 36117 ft 415 kts 323°
2026-04-27 13:37 45.16788 10.03891 36110 ft 415 kts 325°
2026-04-27 13:38 45.20747 10.00053 36110 ft 415 kts 326°
2026-04-27 13:38 45.25509 9.95440 36107 ft 414 kts 325°
2026-04-27 13:39 45.30245 9.90773 36102 ft 414 kts 325°
2026-04-27 13:39 45.34966 9.86074 36098 ft 414 kts 325°
2026-04-27 13:40 45.39681 9.81377 36134 ft 414 kts 325°
2026-04-27 13:40 45.44402 9.76681 36151 ft 414 kts 325°
2026-04-27 13:41 45.49120 9.71990 36173 ft 414 kts 325°
2026-04-27 13:41 45.53805 9.67318 36188 ft 413 kts 325°
2026-04-27 13:42 45.58510 9.62607 36202 ft 413 kts 325°
2026-04-27 13:42 45.63211 9.57890 36117 ft 413 kts 325°
2026-04-27 13:43 45.67904 9.53166 36117 ft 412 kts 324°
2026-04-27 13:43 45.72595 9.48447 36113 ft 412 kts 324°
2026-04-27 13:44 45.77281 9.43725 36112 ft 412 kts 324°
2026-04-27 13:44 45.81962 9.38994 36108 ft 412 kts 324°
2026-04-27 13:45 45.86641 9.34246 36098 ft 412 kts 324°
2026-04-27 13:45 45.91283 9.29540 36094 ft 411 kts 324°
2026-04-27 13:46 45.95947 9.24794 36090 ft 411 kts 324°
2026-04-27 13:46 46.00602 9.20042 36082 ft 410 kts 324°
2026-04-27 13:47 46.05262 9.15280 36088 ft 411 kts 324°
2026-04-27 13:47 46.09911 9.10519 36084 ft 410 kts 324°
2026-04-27 13:48 46.14676 9.06002 36090 ft 411 kts 333°
2026-04-27 13:48 46.20156 9.03688 36093 ft 414 kts 352°
2026-04-27 13:49 46.25898 9.02944 36091 ft 414 kts 352°
2026-04-27 13:49 46.31598 9.02187 36087 ft 414 kts 352°
2026-04-27 13:50 46.37324 9.01314 36087 ft 412 kts 346°
2026-04-27 13:50 46.42638 8.98449 36089 ft 407 kts 327°
2026-04-27 13:51 46.47083 8.93434 36088 ft 405 kts 318°
2026-04-27 13:51 46.51364 8.88109 36094 ft 405 kts 318°
2026-04-27 13:52 46.55652 8.82782 36102 ft 405 kts 318°
2026-04-27 13:52 46.59929 8.77446 36111 ft 405 kts 318°
2026-04-27 13:53 46.66340 8.69416 36123 ft 405 kts 318°